{"data":{"norad_id":68769,"intl_designator":"2026-086D","name":"STARLINK-36379","alt_names":[],"object_type":"PAYLOAD","status":"ACTIVE","operator":null,"country":"US","launch_date":"2026-04-19","launch_site_code":"AFWTR","launch_vehicle":null,"mission":null,"orbit_class":"UNKNOWN","rcs_meters":null,"size_class":null,"mass_kg":null,"dimensions":null,"purposes":["comms"],"wikipedia_slug":null,"has_3d_model":false,"image_url":null,"decayed_at":null,"tle_current":{"epoch":"2026-05-25T04:00:03.998880Z","epoch_age_seconds":54574,"freshness":"FRESH","line1":"1 68769U 26086D   26145.16671295  .00013219  00000+0  24464-3 0  9991","line2":"2 68769  97.2852 181.8946 0000715  87.3337 322.3573 15.49150371  6065","mean_motion":15.49150371,"eccentricity":7.15e-5,"inclination_deg":97.2852,"raan_deg":181.8946,"arg_perigee_deg":87.3337,"mean_anomaly_deg":322.3573,"bstar":0.00024464,"rev_number":606,"period_min":92.954178429461,"perigee_km":418.72425290877,"apogee_km":419.69627356742,"semimajor_km":6797.3472632381,"source":"CELESTRAK","updated_at":"2026-05-25T13:38:22.034271Z"}}}